STARLINK-2358, 47898

Orbit data source: Space-Track

STARLINK-2358, 47898 is a payload satellite owned by SpaceX/Seattle (US) in LEO that was launched on Sun, 14 Mar 2021 UTC via an FALCON 9 launch vehicle from the Air Force Eastern Test Range (AFETR). Payload-class satellites include a variety of spacecraft equipped with specific instruments for various scientific and technological missions. These include communications satellites like Starlink; space stations such as the ISS; scientific satellites like the Hubble; Earth observation satellites from companies like Planet Labs, Umbra, and HawkEye 360; GPS; miniature CubeSats for education and research; and military/defense satellites.

Loading next visibility...
Identifier
47898, 2021-021AQ
Orbit
LEO
Country
Flag of USUS
Related business
Manufacturer
SpaceX/Seattle
Mission
Operational Commercial Communications
Bus & Motor
STARLINK, Unknown motor
Mass
260 kg wet, ~248 kg dry
Launch date (UTC)
2021-03-14 (5 years ago)
Launch vehicle
FALCON 9
Launch site
Air Force Eastern Test Range (AFETR)
Object type
Payload
Rocket body
Debris
Shape & HBR
Box + 1 Pan, 10.1 m
Radar Cross Section
13.562 m², Large (>1 m²)

Expand to show TLE details & history
Last TLE update: 2 days ago

TLE from 2 days ago
0 STARLINK-2358
1 47898U 21021AQ  26171.34710954  .00000135  00000-0  16106-4 0  9999
2 47898  53.1596 150.5042 0001324  82.1610 277.9542 15.31702294291925
Epoch: 2026-06-20T08:19Z
TLE epoch observation values (Epoch: 2026-06-20T08:19:50.264Z)
Latitude
0.00002°
Longitude
116.98174°
Altitude
471.508 km
Speed
7.632 km/s
True Right ascension
10h 02m 01s
True Declination
0° 00' 00"
Sunlit
Object was in daylight at epoch
Visualization orbit readout
Latitude
Unknown
Longitude
Unknown
Altitude
Unknown
Speed
Unknown
Apparent Right ascension
Unknown
Apparent Declination
Unknown
Sunlit
N/A
Visualization observer readout
Local Sidereal Time
21:29:38
Azimuth
Unknown
Elevation
Unknown
Doppler factor
Unknown
Orbital elements
Apogee altitude
471.897 km
Perigee altitude
470.083 km
Semi-major axis
6,849.127 km
Eccentricity
0.00013
Inclination
53.1596°
RAAN
150.5042°
Arg. of periapsis
82.161°
True anomaly
277.93917°
Mean anomaly
277.9542°
Eccentric anomaly
277.94669°
Mean motion
3.82904 °/min
Orbital period
94.02 mins
BSTAR
0.000016106
Loading maneuver chart data...
Computing Atmospheric mass density...

Documentation

Showing up to 5 results
|